Location: Peebles
(55.6412°N, 3.1714°W)
Time: 13:22:11
(UTC+00:00)

CUTE-I - Pass Details

Date: 15 December 2023
Orbit: 807 x 823 km, 98.7° (Epoch: 24 February)

Event Time Altitude Azimuth Distance (km) Brightness Sun altitude
Rises 18:00:01 0° 182° (S) 3,325 ? -18.0°
Reaches altitude 10° 18:02:27 10° 189° (S) 2,401 ? -18.3°
Maximum altitude 18:07:32 45° 262° (W) 1,110 ? -19.0°
Drops below altitude 10° 18:12:40 10° 334° (NNW) 2,427 ? -19.7°
Sets 18:15:09 0° 341° (NNW) 3,367 ? -20.0°
